Track ONEWEB-0345 now! 10-day predictions ONEWEB-0345 is classified as:
1 49211U 21083AB 22138.58334491 -.00003183 00000-0 -87552-2 0 9990 2 49211 87.9046 256.3522 0002177 126.0231 65.3845 13.13468585 1309